Location: Newark
(55.7717°N, 25.7294°E)
Time: 17:02:34
(UTC+00:00)

Envisat - Visible Passes

Search period start: 30 September 2020 00:00
Search period end: 10 October 2020 00:00
Orbit: 764 x 766 km, 98.1° (Epoch: 29 September)

Date Brightness Start Highest point End Pass type
(mag) Time Alt. Az. Time Alt. Az. Time Alt. Az.
30 Sep 5.2 03:41:47 10° NNE 03:46:20 32° E 03:50:51 10° SSE visible
30 Sep 6.1 16:44:44 10° SW 16:48:25 20° W 16:52:06 10° NW visible
01 Oct 6.1 03:05:43 10° NE 03:09:05 18° E 03:12:28 10° SE visible
02 Oct 6.5 17:12:02 10° WSW 17:14:15 13° W 17:16:30 10° NW visible
03 Oct 5.6 03:30:34 10° NE 03:34:52 27° E 03:39:08 10° SSE visible
03 Oct 5.8 16:32:51 10° SW 16:36:54 23° W 16:40:59 10° NW visible
04 Oct 6.3 02:54:46 10° NE 02:57:33 15° E 03:00:20 10° ESE visible
05 Oct 6.3 16:59:44 10° WSW 17:02:42 15° W 17:05:41 10° NW visible
06 Oct 5.8 03:19:24 10° NE 03:23:22 22° E 03:27:19 10° SE visible
06 Oct 5.5 16:21:04 10° SSW 16:25:25 28° W 16:29:47 10° NNW visible
07 Oct 6.5 02:44:04 10° ENE 02:46:00 12° E 02:47:56 10° ESE visible
08 Oct 5.1 03:44:27 10° NNE 03:49:04 34° E 03:53:40 10° SSE visible
08 Oct 6.1 16:47:40 10° SW 16:51:10 19° W 16:54:42 10° NW visible
09 Oct 6.1 03:08:17 10° NE 03:11:52 19° E 03:15:24 10° SE visible
09 Oct 5.1 16:09:21 10° SSW 16:13:56 33° W 16:18:33 10° NNW visible
